Flag for Brazil

Past Weather in Parnaíba, Piauí, Brazil — Yesterday and Last 2 Weeks

Now
90 °F

Passing clouds.


Feels Like: 93 °F
Forecast: 91 / 80 °F
Wind: 2 mph from Southwest

Location: Teresina Aeroporto
Current Time: Oct 23, 2020 at 10:12:49 pm
Latest Report: Oct 23, 2020 at 9:00 pm
Visibility: N/A
Pressure29.80 "Hg
Humidity: 49%
Dew Point: 68 °F
Location of ParnaíbaLocation

Past Weather in Parnaíba — Graph

°F

Parnaíba Temperature Yesterday

Maximum temperature yesterday: 102 °F (at 2:00 pm)
Minimum temperature yesterday: 79 °F (at 4:00 am)
Average temperature yesterday: 89 °F

High & Low Weather Summary for the Past Weeks

 TemperatureHumidityPressure
High104 °F (Oct 15, 3:00 pm)89% (Oct 10, 6:00 am)29.98 "Hg (Oct 10, 6:00 am)
Low75 °F (Oct 10, 6:00 am)19% (Oct 15, 3:00 pm)29.68 "Hg (Oct 19, 4:00 pm)
Average88 °F53%29.83 "Hg
* Reported Oct 8 9:00 pm — Oct 23 9:00 pm, Parnaíba. Weather by CustomWeather, © 2020

Note: Actual official high and low records may vary slightly from our data, if they occured in-between our weather recording intervals... More about our weather records

Parnaíba Weather History for the Previous 24 Hours

Scroll right to see more
 ConditionsComfort  
Time TempWeatherWind HumidityBarometerVisibility
9:00 pm
Fri, Oct 23
90 °FPassing clouds.2 mph49%29.80 "HgN/A
8:00 pm90 °FClear.5 mph52%29.77 "Hg10 mi
7:00 pm93 °FPassing clouds.3 mph41%29.77 "HgN/A
6:00 pm95 °FPassing clouds.3 mph36%29.74 "HgN/A
5:00 pm95 °FScattered clouds.3 mph39%29.71 "HgN/A
4:00 pm95 °FLight rain. Scattered clouds.13 mph39%29.71 "HgN/A
3:00 pm100 °FPartly sunny.6 mph31%29.71 "HgN/A
2:00 pm99 °FPartly sunny.7 mph33%N/AN/A
1:00 pm97 °FPartly sunny.7 mph37%29.80 "HgN/A
12:00 pm93 °FPartly sunny.8 mph41%29.83 "HgN/A
11:00 am90 °FOvercast.9 mph49%29.89 "HgN/A
10:00 am90 °FPartly sunny.8 mph52%29.89 "HgN/A
9:00 am86 °FPartly sunny.10 mph59%29.89 "HgN/A
8:00 am82 °FOvercast.8 mph70%29.92 "HgN/A
7:00 am81 °FOvercast.6 mph74%29.89 "HgN/A
6:00 am81 °FPartly sunny.5 mph79%29.86 "HgN/A
5:00 am79 °FPassing clouds.2 mph84%29.86 "HgN/A
4:00 am79 °FClear.3 mph84%29.83 "Hg10 mi
3:00 am81 °FClear.5 mph79%29.83 "Hg10 mi
2:00 am81 °FClear.6 mph79%29.83 "Hg10 mi
1:00 am81 °FClear.7 mph79%29.83 "Hg10 mi
12:00 am82 °FClear.10 mph74%29.83 "Hg10 mi
11:00 pm
Thu, Oct 22
84 °FClear.12 mph70%29.86 "Hg10 mi
10:00 pm84 °FClear.9 mph70%29.83 "Hg10 mi
Weather by CustomWeather, © 2020

See weather overview